Location: Warszawa
(52.2500°N, 21.0000°E)
Time: 17:34:16
(UTC+01:00)

Transit 2A - Visible Passes

Search period start: 22 February 2024 00:00
Search period end: 03 March 2024 00:00
Orbit: 600 x 953 km, 66.7° (Epoch: 22 February)

Date Brightness Start Highest point End Pass type
(mag) Time Alt. Az. Time Alt. Az. Time Alt. Az.
22 Feb 7.8 02:46:48 26° NE 02:46:48 26° NE 02:50:08 10° E visible
22 Feb 5.7 04:27:15 33° NW 04:29:26 78° SW 04:34:36 10° SSE visible
23 Feb 8.5 02:13:11 16° ENE 02:13:11 16° ENE 02:14:31 10° E visible
23 Feb 5.8 03:53:39 62° NNW 03:54:25 78° NE 03:59:35 10° SE visible
23 Feb 7.2 05:34:07 12° WNW 05:37:05 21° WSW 05:40:53 10° SSW visible
24 Feb 6.6 03:20:12 50° E 03:20:12 50° E 03:24:25 10° SE visible
24 Feb 6.7 05:00:41 24° W 05:02:14 29° WSW 05:06:42 10° S visible
24 Feb 7.5 19:42:50 10° SSW 19:44:05 19° SSW 19:44:05 19° SSW visible
25 Feb 7.8 02:46:56 23° ESE 02:46:56 23° ESE 02:49:07 10° ESE visible
25 Feb 6.2 04:27:25 40° WSW 04:27:25 40° WSW 04:32:13 10° S visible
25 Feb 6.1 19:08:06 10° S 19:11:25 38° SSE 19:11:25 38° SSE visible
25 Feb 8.2 20:51:19 10° WSW 20:51:56 14° WSW 20:51:56 14° WSW visible
26 Feb 6.8 03:54:22 34° S 03:54:22 34° S 03:57:32 10° SSE visible
26 Feb 6.4 18:33:35 10° S 18:37:19 29° ESE 18:38:39 24° E visible
26 Feb 6.7 20:15:59 10° WSW 20:19:09 39° W 20:19:09 39° W visible
27 Feb 8.0 03:21:30 17° SSE 03:21:30 17° SSE 03:22:39 10° SSE visible
27 Feb 7.9 05:02:01 12° SW 05:02:01 12° SW 05:02:45 10° SW visible
27 Feb 6.9 17:59:20 10° SSE 18:02:29 20° ESE 18:05:40 10° ENE visible
27 Feb 5.8 19:40:47 10° SW 19:45:06 66° NW 19:46:12 46° NNE visible
27 Feb 8.5 21:25:49 10° WNW 21:26:43 14° WNW 21:26:43 14° WNW visible
28 Feb 5.4 19:05:43 10° SW 19:10:04 88° ESE 19:13:05 20° NE visible
28 Feb 7.7 20:50:13 10° W 20:53:34 23° NNW 20:53:34 23° NNW visible
29 Feb 5.5 18:30:48 10° SSW 18:35:04 61° SE 18:39:26 10° NE visible
29 Feb 7.4 20:14:41 10° W 20:18:28 28° NNW 20:20:15 22° N visible
29 Feb 8.8 22:00:40 10° NW 22:00:43 10° NW 22:00:43 10° NW visible
01 Mar 6.0 17:56:04 10° S 18:00:08 41° ESE 18:04:17 10° NE visible
01 Mar 7.0 19:39:15 10° WSW 19:43:16 36° NW 19:46:46 14° NNE visible
01 Mar 8.3 21:25:02 10° NW 21:27:14 15° NNW 21:27:14 15° NNW visible
02 Mar 6.4 19:03:55 10° WSW 19:08:07 48° NW 19:12:28 10° NNE visible
02 Mar 8.1 20:49:23 10° WNW 20:52:18 17° NNW 20:53:37 15° N visible
